[[{"header":{"parameterUnit":"m.s-1","parameterCategory":1,"la1":30.2991,"la2":30.254,"lo1":-89.0895,"lo2":-89.0444,"dy":0.0017,"dx":0.0017,"nx":28,"ny":28,"refTime":"2024-10-12T09:00:00:Z","depth":0,"parameterNumber":2,"parameterNumberName":"U-component_of_WINDS"},"data":[0,0,0,0,0,0,0,0,0,0,0,0,0,0,0,0,0,0,0,0,0,0,0,0,0,0,0,0,0,0,0,0,0,0,0,0,0,0,0,0,0,0,0,0,0,0,0,0,0,0,0,0,0,0,0,0,0,0,5.1663,5.1664,0,5.1823,5.1825,5.1827,5.176,5.1756,5.1752,5.1749,5.1912,5.192,5.1928,0,0,0,0,0,0,0,0,0,0,0,0,0,5.1295,5.1302,5.1662,5.1664,5.1666,5.1823,5.1825,5.1827,5.1761,5.1756,5.1751,5.1747,5.191,5.1919,5.1929,0,0,0,0,0,0,0,0,0,0,0,0,0,5.1455,5.1305,5.1662,5.1652,5.1653,5.1822,5.1825,5.1828,5.1762,5.1756,5.175,5.1745,5.1907,5.1918,5.193,5.2118,0,0,5.1966,5.1971,0,0,0,0,0,0,0,0,5.1446,5.1469,5.1652,5.1653,5.1654,5.1766,5.1755,5.1925,5.1763,5.172,5.1749,5.1742,5.1868,5.1883,5.1926,5.2126,5.2133,5.1967,5.1975,5.198,5.1983,0,0,0,0,0,0,0,5.1435,5.1461,5.1726,5.1654,5.1656,5.1639,5.1655,5.1787,5.1825,5.1724,5.1719,5.1739,5.1868,5.1914,5.1929,5.2135,5.1967,5.1978,5.1985,5.199,5.2494,5.25,0,0,0,0,0,0,5.1424,5.1453,5.1721,5.1731,5.1534,5.165,5.1668,5.1736,5.1823,5.1831,5.1744,5.1735,5.1897,5.1915,5.1934,5.2157,5.198,5.1991,5.1998,5.2487,5.2495,5.2502,0,0,0,0,0,0,5.1416,5.1449,5.1714,5.159,5.1623,5.1662,5.1739,5.1742,5.1788,5.1838,5.1844,5.1785,5.1893,5.1918,5.2072,5.2162,5.1996,5.2007,5.248,5.249,5.2498,5.2606,0,0,0,0,0,0,5.1406,5.1446,5.1519,5.1593,5.163,5.1851,5.1744,5.1749,5.1809,5.1799,5.1878,5.1886,5.189,5.2055,5.2084,5.2175,5.2016,5.2472,5.2484,5.2495,5.2595,5.2618,5.2638,0,0,0,0,0,5.1393,5.1544,5.1523,5.1556,5.1722,5.1856,5.1877,5.188,5.1817,5.1889,5.1921,5.1883,5.2148,5.2071,5.2103,5.22,5.2466,5.2481,5.2495,5.2585,5.2614,5.2638,0,0,0,0,0,0,5.1481,5.1554,5.1531,5.1711,5.1778,5.1844,5.1936,5.1911,5.1997,5.1984,5.1983,5.2002,5.216,5.2196,5.2109,5.2384,5.2297,5.2319,5.2355,5.2383,5.2404,5.2391,5.2026,0,0,0,0,0,5.1521,5.1625,5.1682,5.1835,5.1869,5.1897,5.1956,5.1952,5.2021,5.2049,5.2092,5.216,5.2258,5.2323,5.2416,5.26,5.2614,5.2682,5.2704,5.2721,5.2739,5.2835,5.2864,5.2548,5.2548,5.2548,0,0,5.1605,5.1658,5.1723,5.1854,5.1905,5.201,5.1922,5.2038,5.2116,5.2067,5.2214,5.2248,5.2324,5.2493,5.2569,5.2527,5.283,5.2739,5.2753,5.2761,5.2852,5.2882,5.2909,5.2558,5.2556,5.2554,0,0,5.1811,5.1863,5.1993,5.2046,5.2125,5.2142,5.2173,5.2244,5.2264,5.2412,5.2376,5.2469,5.2639,5.2693,5.2743,5.2966,5.2933,5.2997,5.3109,5.3203,5.3227,5.3249,5.3326,5.3353,5.3015,5.3015,5.3015,0,5.1905,5.2064,5.2064,5.2182,5.2239,5.2199,5.233,5.2381,5.2487,5.2526,5.2477,5.2687,5.2736,5.2915,5.2969,5.3012,5.3045,5.2987,5.3224,5.3246,5.3267,5.3339,5.3368,5.3022,5.3021,5.302,5.302,0,5.2174,5.2284,5.238,5.2481,5.2549,5.2674,5.2691,5.276,5.2749,5.2771,5.292,5.2977,5.3079,5.3121,5.3113,5.3299,5.3269,5.3223,5.3135,5.3304,5.3371,5.34,5.3032,5.3029,5.3027,5.3025,0,0,5.244,5.2538,5.2573,5.2616,5.2699,5.2783,5.2905,5.3004,5.3061,5.3135,5.3234,5.3378,5.3334,5.3391,5.3388,5.3471,5.3639,5.3413,5.3415,5.345,5.3842,5.3874,5.3907,5.3619,5.3624,5.3628,5.3834,0,5.2649,5.2862,5.2864,5.3059,5.3158,5.3121,5.3226,5.3287,5.331,5.3397,5.3422,5.3522,5.3459,5.3492,5.3572,5.3602,5.3717,5.3587,5.3708,5.3713,5.3688,5.3943,5.3978,5.417,5.3861,5.3866,5.3869,0,5.2923,5.3003,5.3208,5.3272,5.3314,5.3409,5.3498,5.3582,5.365,5.366,5.3722,5.3706,5.3827,5.3737,5.3902,5.3813,5.3863,5.3885,5.3892,5.3901,5.3799,5.3955,5.4232,5.4259,5.3912,5.3908,5.3905,0,5.3091,5.3252,5.3393,5.3432,5.3513,5.3579,5.3615,5.3677,5.3735,5.3814,5.3851,5.3943,5.3992,5.4062,5.407,5.4005,5.4235,5.4146,5.4245,5.4244,5.4293,5.4289,5.4578,5.4331,5.433,5.433,5.4329,0,5.3324,5.3449,5.347,5.3557,5.3695,5.3696,5.3833,5.3863,5.3918,5.4009,5.3983,5.4068,5.4075,5.4162,5.417,5.4303,5.4326,5.4336,5.4336,5.4337,5.4335,5.4368,5.4353,5.4337,5.4336,5.4334,5.4333,0,5.3535,5.3554,5.3706,5.3768,5.3787,5.3886,5.3938,5.402,5.404,5.4155,5.4182,5.4213,5.4314,5.4329,5.4449,5.4453,5.4612,5.4599,5.4589,5.4586,5.4682,5.4671,5.4999,5.504,5.4769,5.4772,5.4774,0,5.3681,5.3776,5.3848,5.3907,5.3946,5.4042,5.41,5.4105,5.4167,5.4249,5.432,5.4418,5.4497,5.466,5.4692,5.4782,5.4769,5.4878,5.4783,5.4779,5.4767,5.4759,5.4767,5.4895,5.4898,5.4901,5.4903,0,5.3936,5.3939,5.4026,5.4115,5.4185,5.4256,5.4322,5.4371,5.4383,5.4454,5.4557,5.4618,5.4738,5.4834,5.4923,5.4959,5.4932,5.4933,5.4959,5.496,5.4948,5.4952,5.4635,5.4925,5.4922,5.4921,5.492,5.4919,5.4116,5.4197,5.426,5.4356,5.4405,5.4467,5.4546,5.4575,5.4661,5.4758,5.4756,5.4867,5.4929,5.5045,5.5087,5.5173,5.5137,5.5177,5.5187,5.5196,5.5203,5.4937,5.5189,5.5189,5.5188,5.5188,5.5187,0,5.4366,5.4404,5.4492,5.4584,5.4659,5.4628,5.4699,5.4763,5.4861,5.4921,5.4999,5.5114,5.5207,5.5246,5.5337,5.5398,5.5388,5.5421,5.5415,5.5423,5.5232,5.5197,5.5428,5.5428,5.5428,5.5428,5.5428,5.5428,5.4505,5.464,5.4651,5.4809,5.4845,5.4954,5.4997,5.5052,5.51,5.523,5.5307,5.5332,5.5382,5.5476,5.5559,5.5567,5.56,5.5639,5.5642,5.5462,5.5437,5.5414,5.5382,5.5647,5.5647,5.5826,5.5827,5.5829]},{"header":{"parameterUnit":"m.s-1","parameterCategory":1,"la1":30.2991,"la2":30.254,"lo1":-89.0895,"lo2":-89.0444,"dy":0.0017,"dx":0.0017,"nx":28,"ny":28,"refTime":"2024-10-12T09:00:00:Z","depth":0,"parameterNumber":3,"parameterNumberName":"V-component_of_WINDS"},"data":[0,0,0,0,0,0,0,0,0,0,0,0,0,0,0,0,0,0,0,0,0,0,0,0,0,0,0,0,0,0,0,0,0,0,0,0,0,0,0,0,0,0,0,0,0,0,0,0,0,0,0,0,0,0,0,0,0,0,2.4393,2.4394,0,2.4524,2.4526,2.4527,2.4539,2.4537,2.4536,2.4535,2.4666,2.4671,2.4675,0,0,0,0,0,0,0,0,0,0,0,0,0,2.4147,2.4151,2.4393,2.4394,2.4396,2.4524,2.4526,2.4528,2.4539,2.4537,2.4536,2.4534,2.4664,2.467,2.4676,0,0,0,0,0,0,0,0,0,0,0,0,0,2.4264,2.4153,2.4393,2.4417,2.4421,2.4524,2.4526,2.4528,2.4539,2.4537,2.4535,2.4533,2.4662,2.4669,2.4676,2.4763,0,0,2.4698,2.4702,0,0,0,0,0,0,0,0,2.4257,2.4273,2.4412,2.4416,2.442,2.4513,2.4487,2.4607,2.454,2.4494,2.4535,2.4532,2.4616,2.4627,2.4656,2.4769,2.4775,2.4699,2.4703,2.4707,2.4709,0,0,0,0,0,0,0,2.4249,2.4267,2.4445,2.4414,2.4419,2.442,2.4434,2.451,2.4565,2.4498,2.4499,2.4515,2.4618,2.465,2.466,2.4777,2.4699,2.4705,2.471,2.4713,2.4964,2.4966,0,0,0,0,0,0,2.4237,2.426,2.4441,2.4449,2.4332,2.4426,2.4442,2.4485,2.4565,2.4575,2.4516,2.4515,2.4638,2.4651,2.4664,2.4769,2.4707,2.4713,2.4717,2.4962,2.4964,2.4967,0,0,0,0,0,0,2.4231,2.4253,2.4435,2.4355,2.4378,2.4433,2.4481,2.4489,2.452,2.4579,2.4588,2.4539,2.4637,2.4654,2.4738,2.4774,2.4717,2.4723,2.4959,2.4962,2.4966,2.4981,0,0,0,0,0,0,2.4224,2.4251,2.4285,2.4356,2.4382,2.4508,2.4483,2.4493,2.4533,2.4532,2.4602,2.4611,2.4637,2.4727,2.4745,2.4783,2.4729,2.4956,2.496,2.4965,2.4977,2.4984,2.499,0,0,0,0,0,2.4215,2.4284,2.4287,2.4309,2.4427,2.451,2.4526,2.4555,2.4536,2.457,2.4607,2.4609,2.4767,2.4736,2.4756,2.4796,2.4954,2.4959,2.4964,2.4974,2.4983,2.499,0,0,0,0,0,0,2.4216,2.4294,2.4298,2.4392,2.4444,2.4512,2.4557,2.4563,2.4621,2.4618,2.465,2.4666,2.4748,2.4781,2.4744,2.4883,2.4858,2.4868,2.4859,2.4868,2.4874,2.4864,2.4735,0,0,0,0,0,2.4227,2.429,2.4354,2.443,2.4457,2.4502,2.4539,2.4557,2.4612,2.4634,2.4678,2.473,2.4791,2.4831,2.4891,2.4982,2.4996,2.5019,2.5026,2.5031,2.5039,2.5087,2.5098,2.4984,2.4984,2.4984,0,0,2.4251,2.4301,2.4339,2.4432,2.4475,2.4537,2.4521,2.4588,2.4634,2.4644,2.4726,2.4759,2.482,2.4907,2.4948,2.4937,2.5073,2.5038,2.5041,2.5047,2.5093,2.5104,2.5114,2.4988,2.4987,2.4987,0,0,2.4326,2.4371,2.4439,2.4482,2.4547,2.4576,2.4592,2.4659,2.4682,2.4765,2.4773,2.4827,2.4933,2.4975,2.501,2.5099,2.5102,2.5117,2.5151,2.5198,2.5207,2.5215,2.5245,2.5255,2.5125,2.5125,2.5125,0,2.4347,2.4442,2.4472,2.4539,2.4579,2.4591,2.4659,2.4699,2.478,2.4806,2.4793,2.4925,2.4966,2.5063,2.5084,2.5113,2.513,2.5109,2.5203,2.5212,2.522,2.5248,2.526,2.5126,2.5126,2.5126,2.5126,0,2.4464,2.453,2.4576,2.4655,2.47,2.4767,2.4805,2.4847,2.4859,2.489,2.4972,2.5022,2.5092,2.5116,2.5129,2.5213,2.5204,2.5197,2.5173,2.5231,2.5259,2.527,2.5128,2.5127,2.5127,2.5127,0,0,2.4544,2.4637,2.4654,2.4688,2.476,2.4811,2.4877,2.4946,2.498,2.5035,2.509,2.5178,2.5171,2.5211,2.5228,2.5269,2.5334,2.5257,2.5259,2.5268,2.5427,2.5432,2.5445,2.5336,2.5339,2.534,2.5422,0,2.4626,2.4746,2.4774,2.4876,2.4936,2.4948,2.5005,2.5054,2.5084,2.5137,2.5169,2.5231,2.5218,2.5241,2.5282,2.5317,2.5366,2.5312,2.5386,2.5388,2.537,2.5459,2.5465,2.554,2.5433,2.5435,2.5436,0,2.4738,2.4796,2.4904,2.4966,2.4992,2.5044,2.5108,2.516,2.5215,2.5233,2.5277,2.529,2.5357,2.5329,2.5421,2.5383,2.5415,2.5436,2.544,2.5447,2.5416,2.5468,2.5565,2.5575,2.5454,2.5452,2.5451,0,2.4784,2.4889,2.4967,2.4996,2.5071,2.5106,2.5139,2.5192,2.5231,2.5286,2.5311,2.5373,2.5406,2.5453,2.5482,2.5459,2.557,2.5546,2.5586,2.5585,2.5609,2.5607,2.571,2.563,2.563,2.563,2.563,0,2.4873,2.4938,2.4988,2.5036,2.5108,2.5139,2.5209,2.5242,2.5289,2.5341,2.5355,2.5404,2.5439,2.5492,2.5515,2.5586,2.5601,2.5616,2.5622,2.5615,2.5613,2.5636,2.5631,2.5633,2.5632,2.5632,2.5631,0,2.4937,2.4973,2.5058,2.5122,2.5139,2.519,2.5243,2.5289,2.5318,2.5384,2.5402,2.5447,2.551,2.5543,2.5622,2.5637,2.5716,2.5719,2.5698,2.57,2.5738,2.5734,2.586,2.5877,2.5786,2.5787,2.5788,0,2.499,2.5041,2.511,2.5146,2.518,2.5239,2.5278,2.5309,2.5349,2.5415,2.5452,2.5516,2.5569,2.5668,2.5707,2.5767,2.577,2.581,2.5779,2.577,2.5769,2.5765,2.577,2.5815,2.5816,2.5817,2.5817,0,2.5081,2.5096,2.5153,2.5216,2.5263,2.5314,2.5364,2.5392,2.5431,2.5475,2.554,2.5581,2.5661,2.5724,2.5786,2.5817,2.5823,2.5827,2.5839,2.5832,2.5818,2.5825,2.5712,2.5824,2.5823,2.5823,2.5822,2.5822,2.5141,2.5186,2.5241,2.5303,2.5344,2.539,2.5436,2.547,2.5525,2.5593,2.5608,2.5676,2.5727,2.5811,2.5845,2.5897,2.5889,2.5907,2.5911,2.5915,2.5916,2.581,2.5908,2.5908,2.5908,2.5908,2.5908,0,2.5232,2.5267,2.5324,2.5394,2.5442,2.5445,2.5499,2.5539,2.5599,2.5647,2.5699,2.5772,2.5832,2.5875,2.5936,2.5969,2.5973,2.5984,2.5982,2.5988,2.5921,2.5903,2.598,2.598,2.598,2.598,2.598,2.598,2.5285,2.536,2.5381,2.5476,2.551,2.5578,2.5609,2.565,2.5689,2.5771,2.5821,2.5849,2.5894,2.5958,2.6012,2.6023,2.6044,2.6055,2.6065,2.6001,2.5993,2.5986,2.597,2.6059,2.6059,2.6129,2.6129,2.613]}]]